STARLINK-2530, 48303

Orbit data source: Space-Track

STARLINK-2530, 48303 is a payload satellite owned by SpaceX/Seattle (US) in LEO that was launched on Thu, 29 Apr 2021 UTC via an FALCON 9 launch vehicle from the Air Force Eastern Test Range (AFETR). Payload-class satellites include a variety of spacecraft equipped with specific instruments for various scientific and technological missions. These include communications satellites like Starlink; space stations such as the ISS; scientific satellites like the Hubble; Earth observation satellites from companies like Planet Labs, Umbra, and HawkEye 360; GPS; miniature CubeSats for education and research; and military/defense satellites.

Loading next visibility...
Identifier
48303, 2021-036AD
Orbit
LEO
Country
Flag of USUS
Related business
Manufacturer
SpaceX/Seattle
Mission
Operational Commercial Communications
Bus & Motor
STARLINK, Unknown motor
Mass
260 kg wet, ~248 kg dry
Launch date (UTC)
2021-04-29 (5 years ago)
Launch vehicle
FALCON 9
Launch site
Air Force Eastern Test Range (AFETR)
Object type
Payload
Rocket body
Debris
Shape & HBR
Box + 1 Pan, 10.1 m
Radar Cross Section
13.562 m², Large (>1 m²)

Expand to show TLE details & history
Last TLE update: 5 hours ago

TLE from 5 hours ago
0 STARLINK-2530
1 48303U 21036AD  26036.26091700 -.00000387  00000-0 -70899-5 0  9990
2 48303  53.0565 237.7352 0001293  93.4395 266.6742 15.06398812263277
Epoch: 2026-02-05T06:15Z
TLE epoch observation values (Epoch: 2026-02-05T06:15:43.228Z)
Latitude
-0.00003°
Longitude
8.38937°
Altitude
548.147 km
Speed
7.589 km/s
True Right ascension
15h 50m 56s
True Declination
0° 00' 00"
Sunlit
Object was in daylight at epoch
Visualization orbit readout
Latitude
Unknown
Longitude
Unknown
Altitude
Unknown
Speed
Unknown
Apparent Right ascension
Unknown
Apparent Declination
Unknown
Sunlit
N/A
Visualization observer readout
Local Sidereal Time
13:35:52
Azimuth
Unknown
Elevation
Unknown
Doppler factor
Unknown
Orbital elements
Apogee altitude
548.381 km
Perigee altitude
546.59 km
Semi-major axis
6,925.623 km
Eccentricity
0.00013
Inclination
53.0565°
RAAN
237.7352°
Arg. of periapsis
93.4395°
True anomaly
266.65941°
Mean anomaly
266.6742°
Eccentric anomaly
266.6668°
Mean motion
3.76578 °/min
Orbital period
95.6 mins
BSTAR
-0.0000070899
Loading maneuver chart data...
Computing Atmospheric mass density...
Loading historical data...
Loading historical data...
Loading historical data...
Loading historical data...
Loading historical data...
Loading historical data...
Loading historical data...

Documentation

Showing up to 5 results
|